Regional Weather Roundup
Issued by NWS

Home | Current Version | Previous Version | Text Only | Print | Product List | Glossary Off
Versions: 1 2 3 4 5 6 7 8 9 10 11 12 13 14 15 16 17 18 19 20 21 22 23 24 25 26 27 28 29 30 31 32 33 34 35 36 37 38 39 40 41 42 43 44 45 46 47 48 49 50

000
ASUS43 KLSX 281059
RWRMO

WEATHER SUMMARY FOR MISSOURI
NATIONAL WEATHER SERVICE SPRINGFIELD MO
600 AM CDT TUE APR 28 2015

NOTE: "FAIR" INDICATES FEW OR NO CLOUDS BELOW 12,000 FEET WITH NO
       SIGNIFICANT WEATHER AND/OR OBSTRUCTIONS TO VISIBILITY.
       CURRENT SKY AND/OR WEATHER CONDITIONS ARE NOT AVAILABLE FOR
       CHILLICOTHE AND FARMINGTON.

MOZ001>031-035>038-043-044-053-054-281200-
...NORTHERN AND WESTERN MISSOURI...

CITY           SKY/WX    TMP DP  RH WIND       PRES   REMARKS
KANSAS CTY INT MOCLDY    43  36  76 NE6       30.15S
KANSAS C DTWN  MOCLDY    46  40  79 CALM      30.15R
LEE`S SUMMIT   PTCLDY    46  37  71 NE5       30.15R
ST JOSEPH      PTCLDY    39  37  92 N3        30.17R
CHILLICOTHE      N/A     43  38  82 CALM      30.16F
KIRKSVILLE     CLEAR     39  37  92 CALM      30.14F

$$
MOZ066>068-077>081-088>096-101>105-281200-
...SOUTHWEST MISSOURI...

CITY           SKY/WX    TMP DP  RH WIND       PRES   REMARKS
SPRINGFIELD    MOCLDY    41  35  79 N6        30.08S
JOPLIN         MOCLDY    45  38  76 NE7       30.10R

$$
MOZ032>034-039>042-045>050-055>058-069>072-281200-
...CENTRAL MISSOURI...

CITY           SKY/WX    TMP DP  RH WIND       PRES   REMARKS
COLUMBIA       CLEAR     44  36  73 NE7       30.12S
JEFFERSON CITY CLEAR     39  36  89 CALM      30.12S
ROLLA          CLEAR     39  36  89 NE6       30.08S
SEDALIA        PTCLDY    45  37  73 N3        30.14S
OSAGE BEACH    CLEAR     43  36  75 NE3       30.11R

$$
MOZ051-052-059>065-281200-
...EAST CENTRAL MISSOURI...

CITY           SKY/WX    TMP DP  RH WIND       PRES   REMARKS
ST LOUIS INTL  PTCLDY    44  37  76 N5        30.13R
SPIRIT OF STL  CLEAR     39  37  92 CALM      30.12R
ST CHARLES     CLEAR     41  36  82 CALM      30.13R

$$
MOZ072>076-082>087-097>100-106>115-281200-
...SOUTH CENTRAL AND SOUTHEAST MISSOURI...

CITY           SKY/WX    TMP DP  RH WIND       PRES   REMARKS
CAPE GIRARDEAU CLEAR     47  37  68 NE12      30.06R
FARMINGTON     CLEAR     43  36  75 N5        30.11R
POPLAR BLUFF   PTCLDY    44  39  82 N3        30.05R
WEST PLAINS    MOCLDY    43  36  76 N6        30.07S

$$


USA.gov is the U.S. government's official web portal to all federal, state and local government web resources and services.